Helicity
162 84 52 52 9 6 26 25 22 38 42 66 62 73 61 38 35 41 42 37 36 27 26 27 25 26 28 27 28 27 25 25 12 8 11 15 16 18 22 37 113 12 26
253 91 70 65 39 27 41 58 55 55 53 76 81 92 70 50 44 42 45 43 35 32 33 30 29 30 30 28 28 26 23 11 -6 -8 -2 -4 14 14 23 29 33 22 25
212 113 76 81 63 44 53 63 78 72 69 85 87 103 91 59 49 45 36 40 36 34 31 30 32 32 30 26 22 23 19 2 -18 -17 4 4 18 17 22 25 24 19 21
172 112 96 91 76 64 73 81 89 90 83 87 93 91 89 74 64 50 36 27 36 39 37 32 30 30 26 21 19 15 11 -6 -18 50 100 68 32 19 18 20 25 30 24
150 132 120 97 86 82 89 96 107 99 102 96 92 84 86 77 73 64 49 23 29 35 43 41 35 26 21 15 12 7 -10 2 29 65 23 24 28 23 18 36 23 28 27
160 154 118 84 87 85 95 106 123 123 118 101 97 81 78 85 82 75 51 42 24 38 38 40 34 29 18 7 2 -0 -3 13 38 52 30 19 54 42 28 26 29 24 21
120 202 85 73 85 80 95 101 126 124 120 112 106 89 74 89 90 80 57 58 46 36 38 47 40 30 26 21 10 -6 -10 19 43 -12 20 64 58 47 25 18 23 24 25
105 157 78 66 77 84 87 98 113 123 118 112 109 96 82 86 89 77 60 55 57 41 36 42 39 25 14 12 9 -2 -8 16 36 4 1 85 64 52 35 26 15 11 23
116 73 68 52 72 107 93 95 125 117 108 105 103 100 84 75 77 72 61 51 51 44 34 37 39 25 11 -6 -15 -21 -35 28 37 7 19 73 74 56 37 29 20 18 14
94 88 90 72 76 84 66 115 120 116 104 100 98 98 81 68 62 60 60 44 49 45 40 38 34 25 18 9 -3 -19 -35 31 25 -13 29 68 57 49 32 23 17 14 10
97 127 142 110 104 101 84 100 115 107 104 105 90 94 82 46 46 63 28 93 53 48 42 41 37 25 16 14 11 -0 -13 18 -1 5 52 76 71 47 31 30 24 16 13
103 150 161 151 128 109 88 102 92 95 85 72 60 75 42 32 32 39 84 80 61 60 53 41 32 24 9 21 30 20 14 25 11 23 85 67 77 48 32 26 22 20 18
99 119 130 173 143 106 95 97 89 92 84 69 53 52 22 26 37 40 69 60 52 46 39 41 35 17 19 28 47 34 39 24 18 32 87 78 70 51 36 24 30 27 22
79 90 88 104 124 99 80 74 78 87 82 78 61 60 29 31 60 29 51 51 45 69 21 42 48 62 52 30 28 27 29 22 42 49 102 87 68 48 46 44 49 44 36
64 72 79 73 122 111 62 71 42 52 55 52 72 79 18 33 57 39 51 49 44 75 36 56 98 72 49 51 45 32 36 29 47 41 82 82 75 50 39 41 47 49 44
69 73 82 85 110 88 49 77 59 51 65 97 57 63 13 36 74 47 64 52 62 64 63 51 46 65 45 43 64 44 47 40 44 47 44 83 73 63 43 31 30 35 39
68 71 70 85 111 75 60 70 52 53 123 97 92 130 66 45 91 48 55 54 59 80 88 89 64 47 84 60 47 66 46 44 40 56 54 53 88 63 71 68 59 41 32
71 84 72 62 99 93 80 76 54 89 78 62 87 93 71 43 74 66 68 72 72 96 77 72 57 55 37 53 53 56 52 54 54 53 43 51 47 60 81 57 70 69 67
88 90 89 80 78 106 95 114 84 80 48 71 66 57 70 50 69 76 69 79 87 78 70 73 43 74 52 53 78 77 60 54 60 48 36 63 53 54 58 100 66 50 63
91 108 106 114 84 124 149 131 96 91 62 71 75 73 102 93 93 82 68 98 85 75 98 65 76 80 52 86 76 97 85 71 77 66 82 63 63 90 96 72 105 74 82
101 130 147 116 119 130 145 161 174 115 94 95 92 97 132 101 120 123 94 100 110 94 94 86 76 48 90 84 85 63 90 62 55 63 89 90 100 109 88 111 83 94 124
129 172 147 127 144 144 145 147 135 119 127 105 135 128 133 107 117 120 87 108 112 86 87 109 102 94 93 83 93 92 93 96 80 96 94 76 122 103 84 120 126 96 116
114 168 189 170 157 169 148 157 134 112 126 131 142 150 143 113 137 101 87 100 114 98 123 109 106 112 106 158 110 110 107 85 190 114 78 74 170 111 130 112 191 174 135
135 140 229 235 175 165 156 189 157 162 174 184 166 160 155 142 140 125 107 108 125 124 118 105 132 152 190 160 139 120 127 139 141 124 119 176 140 105 109 113 148 101 150
179 183 159 225 237 190 186 186 222 172 166 175 160 159 187 175 157 147 151 173 200 217 222 187 210 184 198 120 160 134 105 99 110 121 99 116 165 146 213 163 176 128 101
199 228 195 202 222 219 220 157 212 210 225 226 211 212 272 305 340 302 303 285 249 214 249 219 187 152 94 116 150 141 113 105 98 105 109 124 149 170 164 196 129 142 183
Wind_Speed
29 38 37 36 37 36 42 42 42 43 45 45 44 46 45 44 42 42 42 42 41 41 40 40 40 40 40 40 40 42 43 43 45 45 45 45 44 44 43 40 43 45 45
30 37 35 34 34 33 36 40 40 40 41 44 42 45 44 42 41 42 42 42 41 41 40 40 40 40 38 39 41 42 43 44 44 44 44 48 47 46 45 44 44 44 43
26 33 32 32 31 31 33 36 38 39 40 41 41 40 43 41 40 40 40 39 39 41 41 41 40 40 40 41 41 41 42 42 43 42 38 34 46 46 45 45 45 46 45
24 32 29 28 29 28 33 34 36 37 39 39 40 39 38 38 37 36 37 38 39 41 42 42 41 40 41 40 40 40 41 40 40 29 23 41 43 46 44 44 45 45 47
22 28 26 27 26 28 33 33 34 35 37 37 38 37 35 35 35 34 35 35 37 39 41 39 39 39 39 39 38 37 38 33 29 22 26 39 39 45 45 42 45 47 47
21 26 25 29 27 28 30 29 31 32 35 36 35 35 33 32 32 33 33 32 35 37 37 37 38 38 38 37 36 35 35 31 26 27 39 39 38 43 44 45 45 46 47
22 22 28 27 24 27 27 25 26 31 32 35 33 33 31 28 27 29 29 30 31 31 33 34 35 36 36 35 34 34 33 28 23 34 25 35 37 40 42 43 42 42 44
23 19 27 23 21 19 20 22 23 29 31 31 29 30 27 25 24 24 25 25 26 27 29 30 31 33 33 33 33 33 33 27 27 31 28 35 35 36 39 40 42 43 43
19 21 28 25 20 14 17 18 22 28 29 28 27 26 24 24 24 22 21 20 22 24 25 26 27 28 29 30 31 32 32 26 25 29 28 35 37 36 37 38 39 41 42
27 26 25 29 20 14 12 15 20 24 24 23 23 22 21 20 21 20 19 18 20 21 21 22 23 24 26 27 29 30 32 26 26 30 28 32 34 34 35 35 36 38 40
21 24 26 28 19 15 13 13 17 20 20 18 18 17 18 18 19 17 19 18 18 19 19 19 20 21 22 23 25 26 24 21 30 27 34 30 31 30 31 32 32 35 37
15 24 28 30 22 18 16 14 19 18 17 18 18 18 20 15 16 17 15 15 17 17 17 17 18 18 18 16 21 22 19 33 25 28 29 28 26 25 25 28 29 31 34
15 23 32 35 23 21 16 18 21 16 17 18 19 18 19 14 13 15 12 12 14 15 15 15 15 14 14 25 25 29 30 25 25 24 26 27 22 21 23 24 24 27 32
17 27 34 40 29 23 19 18 20 17 18 18 21 18 21 13 10 16 10 12 12 12 16 13 12 20 23 18 22 24 24 27 25 25 23 24 20 20 22 24 23 24 29
17 25 35 36 32 26 27 18 20 18 19 19 18 17 21 14 8 11 8 10 10 9 10 10 18 18 15 18 20 22 25 24 28 29 30 22 22 20 20 22 25 25 29
16 22 28 33 30 29 28 17 16 14 13 8 12 15 22 11 2 6 4 4 4 7 9 9 10 12 16 16 20 23 27 28 25 30 31 22 21 19 20 23 23 24 28
16 20 26 29 28 28 28 20 17 16 9 11 10 8 13 9 2 2 1 2 5 8 13 15 17 18 24 29 29 18 25 25 28 28 29 32 20 17 17 18 19 22 25
19 21 23 26 29 28 26 23 19 16 16 12 13 12 14 13 7 5 5 6 7 12 10 14 16 20 26 24 22 24 21 29 22 29 29 31 32 35 19 19 21 24 27
24 24 24 25 27 27 25 23 23 20 19 16 15 14 15 16 12 8 8 8 10 10 14 19 18 17 21 21 22 16 21 25 38 37 39 36 35 37 39 32 27 32 34
29 28 28 27 26 27 26 26 24 24 21 19 18 16 15 16 14 11 11 13 11 14 20 16 20 22 22 25 29 32 29 33 31 34 39 40 41 37 43 42 38 37 32
30 33 32 31 30 29 29 30 29 28 25 23 21 19 17 15 14 13 19 14 11 15 14 11 17 23 29 31 33 32 27 24 30 36 42 45 44 41 40 43 44 49 49
34 34 36 37 36 36 33 31 30 30 28 26 23 21 19 18 15 13 17 12 10 14 17 26 24 26 29 27 33 37 39 37 34 27 37 37 38 42 40 41 49 51 54
38 39 41 40 39 40 39 36 32 30 29 26 24 22 23 20 19 17 15 16 16 25 30 28 25 25 30 32 34 36 38 41 44 39 30 36 42 45 51 52 56 61 62
43 41 43 44 44 44 45 42 41 37 35 30 29 26 24 23 21 18 16 17 22 27 29 26 28 30 29 33 33 33 36 44 41 45 40 43 46 50 52 54 59 60 60
45 48 46 46 45 47 49 49 46 43 38 33 30 27 24 23 22 20 21 24 27 29 30 29 28 29 27 31 28 31 33 36 40 45 54 51 51 54 58 63 62 63 63
49 51 53 51 48 49 52 55 51 49 41 36 32 29 25 25 26 23 23 25 26 25 24 23 23 22 24 28 29 30 32 37 40 46 52 56 61 62 58 59 59 58 58
Wind_Direction
105 121 116 107 107 107 114 111 107 102 99 97 90 86 81 77 67 63 59 59 58 59 56 55 54 52 50 47 43 45 45 41 44 44 42 35 25 17 7 352 357 8 358
110 125 119 111 108 108 113 113 109 105 101 102 94 91 86 80 72 66 63 61 59 60 56 56 54 52 48 47 49 49 48 49 50 56 57 48 30 24 13 6 3 5 356
109 126 122 115 111 111 114 115 111 108 106 104 100 92 91 83 75 69 62 58 58 62 62 60 58 55 55 58 58 53 51 51 55 72 84 43 26 22 16 11 9 10 2
114 128 125 119 115 114 116 118 113 110 110 106 103 97 90 82 75 69 63 63 62 67 68 66 63 61 65 63 62 57 48 50 66 118 153 18 28 26 17 11 12 6 10
117 131 128 126 122 119 122 120 117 114 113 109 107 102 91 85 77 70 71 63 64 66 72 64 62 64 66 65 64 65 57 107 137 164 49 19 7 28 21 3 23 18 16
122 132 133 132 128 126 124 124 121 117 116 113 109 104 96 87 80 75 74 68 71 72 67 63 65 67 66 63 68 75 86 122 152 125 42 42 16 34 31 27 25 21 23
127 127 138 138 134 130 128 128 124 121 117 117 110 106 101 88 78 78 75 72 69 64 65 65 65 70 68 68 69 67 80 134 154 73 77 47 37 35 31 24 17 14 16
127 125 141 143 140 134 130 130 127 123 121 117 113 109 103 92 84 78 75 65 63 62 64 61 59 64 68 66 59 57 72 142 143 95 94 46 44 40 39 33 33 29 16
123 128 142 146 148 151 139 137 129 126 123 120 116 109 103 99 94 82 73 59 58 66 65 58 52 52 50 37 23 9 340 155 162 88 109 55 56 56 55 50 44 34 29
124 132 143 146 159 173 170 149 135 131 127 121 117 110 104 97 95 88 76 68 68 66 60 47 37 38 36 30 22 10 4 156 118 41 86 39 40 50 51 47 47 39 28
131 142 146 152 175 185 191 164 143 136 130 122 117 110 105 99 104 92 102 81 74 68 56 41 34 34 44 40 30 30 53 82 20 44 15 40 38 47 45 47 49 39 31
153 157 156 157 172 192 179 171 152 144 138 135 132 126 124 110 110 108 84 79 78 73 57 39 37 53 76 75 50 49 67 359 30 17 21 29 39 45 42 38 38 33 24
158 158 161 160 175 185 189 164 156 153 148 146 145 137 138 120 108 107 68 84 86 92 80 63 56 76 89 360 5 357 359 16 18 23 21 21 33 34 28 23 28 24 17
164 158 160 161 166 182 177 168 165 162 158 153 154 149 149 134 114 132 88 103 103 89 125 85 102 9 358 17 7 4 9 359 7 9 14 16 20 17 13 11 14 14 8
171 163 162 166 168 179 174 179 175 172 165 160 155 159 158 147 129 131 110 105 103 88 96 41 359 2 23 10 6 4 1 2 352 350 353 12 10 9 8 4 359 359 356
185 175 166 169 171 174 179 195 199 196 178 189 162 165 167 156 139 136 108 104 47 16 25 31 17 18 3 8 359 352 350 350 352 342 343 4 9 10 5 358 357 355 351
204 187 182 178 181 184 187 200 204 198 231 223 224 263 178 181 240 191 217 332 339 350 342 347 344 344 340 333 336 0 350 352 346 344 345 344 2 4 4 1 355 350 347
225 206 198 193 192 194 199 208 219 237 239 238 254 239 206 202 230 230 281 302 320 325 335 335 335 334 331 337 343 344 351 342 350 340 341 339 341 341 349 347 347 345 339
233 225 216 209 203 203 209 223 233 240 232 247 241 231 212 208 212 239 263 287 303 312 317 322 326 330 334 338 340 350 346 341 331 330 327 329 331 332 333 340 338 336 333
242 234 229 224 220 219 227 231 232 242 241 240 243 236 221 220 217 230 266 287 290 302 309 317 321 325 328 333 331 331 335 333 335 331 328 326 326 330 330 330 333 333 330
243 233 228 225 223 221 219 220 228 230 238 242 245 243 239 225 222 240 278 279 285 296 301 307 316 317 319 325 327 327 332 334 330 331 328 326 329 335 335 334 333 333 336
236 229 230 229 226 223 228 231 235 237 240 246 246 241 236 226 230 228 265 270 270 294 301 306 311 315 320 325 324 326 325 331 329 339 340 338 338 334 336 336 332 329 328
229 232 226 226 224 227 232 238 238 239 244 240 237 239 233 229 238 243 249 273 283 292 300 303 307 312 314 321 324 324 326 327 330 330 332 334 335 334 331 329 330 328 326
231 232 228 234 232 228 229 233 228 226 231 236 241 245 239 232 239 240 251 266 287 296 301 304 311 313 315 315 322 325 324 324 324 322 329 331 329 327 329 327 328 328 329
241 238 234 234 234 234 230 234 230 234 240 241 244 240 236 238 238 242 263 276 288 297 303 305 311 314 313 318 325 329 329 328 325 320 318 324 326 327 328 325 327 327 326
239 240 240 235 234 232 229 230 232 229 235 234 235 235 241 252 254 257 268 279 291 297 306 310 317 320 320 319 325 328 329 326 326 322 319 320 321 322 327 329 330 333 333